Latest Weather Observations for Pirlangimpi

IDD60801

Issued at 2:35 pm CST Friday 31 October 2014 (issued every 30 minutes, with the page automatically refreshed every 10 minutes)

About weather observations | Map of weather stations | Latest weather observations for NT | Other Formats
Station Details ID: 014142 Name: PIRLANGIMPI AIRPORT Lat: -11.40 Lon: 130.42 Height: 18.3 m
Data from the previous 72 hours. | See also: Recent months at Pirlangimpi
Date/Time
CST
Temp
°C
App
Temp
°C
Dew
Point
Rel
Hum
%
Delta-T
°C
Wind Press
QNH
hPa
Press
MSL
hPa
Rain
since 9 am
mm
Dir
 
Spd
km/h
Gust
km/h
Spd
kts
Gust
kts
31/02:30pm 33.3 35.2 20.5 47 8.6 NW 11 22 6 12 1008.7 1008.6 0.0
31/02:00pm 33.0 34.3 20.2 47 8.5 NW 13 24 7 13 1009.0 1008.9 0.0
31/01:30pm 32.9 33.8 20.1 47 8.5 NW 15 26 8 14 1009.5 1009.4 0.0
31/01:00pm 33.3 34.7 21.1 48 8.2 NW 15 22 8 12 1009.9 1009.8 0.0
31/12:30pm 32.5 33.6 20.4 49 8.1 NW 15 28 8 15 1010.3 1010.2 0.0
31/12:00pm 32.0 33.4 20.3 50 7.8 NW 13 28 7 15 1010.7 1010.6 0.0
31/11:30am 33.2 35.2 20.7 47 8.4 NW 11 26 6 14 1011.0 1010.9 0.0
31/11:00am 31.9 33.5 19.9 49 7.9 NW 11 20 6 11 1011.3 1011.2 0.0
31/10:30am 31.4 33.7 20.7 53 7.1 NW 9 19 5 10 1011.4 1011.3 0.0
31/10:00am 30.8 33.3 21.0 56 6.6 WNW 9 19 5 10 1011.7 1011.6 0.0
31/09:30am 30.1 33.3 21.2 59 6.0 NW 6 13 3 7 1011.9 1011.8 0.0
31/09:00am 30.3 33.7 21.7 60 5.8 NNW 6 9 3 5 1011.9 1011.8 0.0
31/08:30am 28.6 32.1 21.1 64 5.0 NNW 4 7 2 4 1011.7 1011.6 0.0
31/08:00am 26.9 30.7 21.0 70 3.9 N 2 6 1 3 1011.2 1011.1 0.0
31/07:30am 24.1 28.5 21.4 85 1.8 CALM 0 0 0 0 1010.9 1010.8 0.0
31/07:00am 21.9 25.7 20.2 90 1.1 CALM 0 4 0 2 1010.6 1010.5 0.0
31/06:30am 20.8 23.3 19.1 90 1.1 NE 4 4 2 2 1010.3 1010.2 0.0
31/06:00am 20.6 23.0 18.9 90 1.1 ENE 4 4 2 2 1010.0 1009.9 0.0
31/05:30am 20.6 23.5 19.1 91 0.9 NE 2 4 1 2 1009.6 1009.5 0.0
31/05:00am 20.8 23.0 19.1 90 1.1 NE 6 6 3 3 1009.2 1009.1 0.0
31/04:30am 20.8 23.7 19.1 90 1.1 ENE 2 6 1 3 1008.9 1008.8 0.0
31/04:00am 20.9 24.2 19.0 89 1.2 CALM 0 0 0 0 1008.6 1008.5 0.0
31/03:30am 21.0 24.2 18.9 88 1.3 CALM 0 0 0 0 1008.5 1008.4 0.0
31/03:00am 21.1 23.7 19.2 89 1.2 ENE 4 6 2 3 1008.5 1008.4 0.0
31/02:30am 21.2 24.5 19.1 88 1.3 CALM 0 0 0 0 1008.6 1008.5 0.0
31/02:00am 21.3 24.6 19.0 87 1.5 CALM 0 0 0 0 1008.9 1008.8 0.0
31/01:30am 21.6 24.9 19.2 86 1.5 CALM 0 0 0 0 1009.2 1009.1 0.0
31/01:00am 22.1 25.5 19.3 84 1.8 CALM 0 0 0 0 1009.1 1009.0 0.0
31/12:30am 22.4 25.1 19.4 83 1.9 NNE 4 7 2 4 1009.2 1009.1 0.0
31/12:00am 23.1 26.0 19.9 82 2.1 N 4 7 2 4 1009.3 1009.2 0.0
 
Date/Time
CST
Temp
°C
App
Temp
°C
Dew
Point
Rel
Hum
%
Delta-T
°C
Wind Press
QNH
hPa
Press
MSL
hPa
Rain
since 9 am
mm
Dir
 
Spd
km/h
Gust
km/h
Spd
kts
Gust
kts
30/11:30pm 23.2 25.8 20.0 82 2.1 N 6 9 3 5 1009.5 1009.4 0.0
30/11:00pm 23.4 26.5 20.2 82 2.1 N 4 7 2 4 1009.6 1009.5 0.0
30/10:30pm 23.7 26.7 20.0 80 2.4 N 4 7 2 4 1009.7 1009.6 0.0
30/10:00pm 24.2 27.0 20.5 80 2.4 N 6 7 3 4 1009.7 1009.6 0.0
30/09:30pm 24.3 27.6 20.0 77 2.8 N 2 4 1 2 1009.4 1009.3 0.0
30/09:00pm 24.6 27.4 19.7 74 3.2 N 4 6 2 3 1009.1 1009.0 0.0
30/08:30pm 25.4 28.0 20.0 72 3.5 N 6 7 3 4 1009.1 1009.0 0.0
30/08:00pm 25.6 28.4 19.7 70 3.8 N 4 7 2 4 1009.1 1009.0 0.0
30/07:30pm 26.6 29.8 19.7 66 4.5 N 2 7 1 4 1009.1 1009.0 0.0
30/07:00pm 27.6 30.1 19.1 59 5.5 NNE 4 6 2 3 1009.0 1008.9 0.0
30/06:30pm 28.8 30.9 18.9 55 6.4 NNE 6 9 3 5 1008.8 1008.7 0.0
30/06:00pm 30.3 32.0 18.4 49 7.7 NE 7 11 4 6 1008.5 1008.4 0.0
30/05:30pm 31.1 33.0 19.8 51 7.5 NNW 9 17 5 9 1008.3 1008.2 0.0
30/05:00pm 31.9 33.9 18.8 45 8.5 N 6 13 3 7 1008.2 1008.1 0.0
30/04:30pm 33.1 34.0 18.5 42 9.5 NNE 11 20 6 11 1008.0 1007.9 0.0
30/04:00pm 34.2 35.0 19.1 41 9.9 NE 13 22 7 12 1008.0 1007.9 0.0
30/03:30pm 34.1 35.3 18.2 39 10.3 NNE 9 17 5 9 1008.1 1008.0 0.0
30/03:00pm 34.8 35.5 18.0 37 10.9 NNE 11 26 6 14 1008.3 1008.2 0.0
30/02:30pm 34.2 35.2 17.8 37 10.6 N 9 20 5 11 1008.5 1008.4 0.0
30/02:00pm 34.7 35.8 17.9 37 10.9 NNE 9 20 5 11 1008.7 1008.6 0.0
30/01:30pm 34.5 35.9 17.7 37 10.9 NNE 7 15 4 8 1009.2 1009.1 0.0
30/01:00pm 35.1 36.5 18.6 37 10.8 NE 9 19 5 10 1009.7 1009.6 0.0
30/12:30pm 33.4 35.0 19.1 42 9.4 NNE 9 17 5 9 1010.4 1010.3 0.0
30/12:00pm 33.5 36.0 19.9 44 9.0 N 6 13 3 7 1010.8 1010.7 0.0
30/11:30am 32.2 34.4 19.1 45 8.6 NE 6 17 3 9 1011.0 1010.9 0.0
30/11:00am 31.8 34.3 19.8 49 7.9 ENE 6 11 3 6 1011.2 1011.1 0.0
30/10:30am 31.5 34.0 19.8 49 7.7 ENE 6 13 3 7 1011.6 1011.5 0.0
30/10:00am 30.4 32.8 19.7 52 7.0 N 6 13 3 7 1011.8 1011.7 0.0
30/09:30am 29.8 32.7 20.6 57 6.1 NE 6 9 3 5 1012.0 1011.9 0.0
30/09:00am 28.5 31.7 21.3 65 4.8 NNE 6 7 3 4 1012.2 1012.1 0.0
30/08:30am 28.9 31.8 21.1 62 5.2 NE 7 13 4 7 1012.0 1011.9 0.0
30/08:00am 26.9 30.2 21.4 72 3.7 NE 6 9 3 5 1011.8 1011.7 0.0
30/07:30am 24.6 27.6 20.9 80 2.4 NE 6 7 3 4 1011.3 1011.2 0.0
30/07:00am 22.4 25.8 21.0 92 0.9 NE 4 7 2 4 1011.1 1011.0 0.0
30/06:30am 21.2 24.0 19.7 91 1.0 NE 4 6 2 3 1010.7 1010.6 0.0
30/06:00am 21.0 23.7 19.5 91 1.0 NE 4 7 2 4 1010.4 1010.3 0.0
30/05:30am 21.2 24.3 19.5 90 1.1 NNE 2 4 1 2 1010.0 1009.9 0.0
30/05:00am 21.3 24.4 19.6 90 1.1 NE 2 4 1 2 1009.9 1009.8 0.0
30/04:30am 21.5 24.3 19.6 89 1.2 NE 4 4 2 2 1009.9 1009.8 0.0
30/04:00am 21.7 24.9 19.8 89 1.2 NE 2 4 1 2 1009.9 1009.8 0.0
30/03:30am 21.8 25.0 19.7 88 1.3 NE 2 4 1 2 1010.0 1009.9 0.0
30/03:00am 21.9 24.7 19.6 87 1.5 ENE 4 6 2 3 1010.2 1010.1 0.0
30/02:30am 22.1 25.2 19.6 86 1.6 ENE 2 4 1 2 1010.2 1010.1 0.0
30/02:00am 22.3 25.5 19.8 86 1.6 ENE 2 4 1 2 1010.2 1010.1 0.0
30/01:30am 22.5 25.8 20.0 86 1.6 ENE 2 4 1 2 1010.4 1010.3 0.0
30/01:00am 22.6 25.9 19.9 85 1.7 ENE 2 4 1 2 1010.8 1010.7 0.0
30/12:30am 23.0 26.8 20.1 84 1.9 CALM 0 0 0 0 1011.1 1011.0 0.0
30/12:00am 23.0 26.6 19.8 82 2.1 CALM 0 0 0 0 1011.1 1011.0 0.0
 
Date/Time
CST
Temp
°C
App
Temp
°C
Dew
Point
Rel
Hum
%
Delta-T
°C
Wind Press
QNH
hPa
Press
MSL
hPa
Rain
since 9 am
mm
Dir
 
Spd
km/h
Gust
km/h
Spd
kts
Gust
kts
29/11:30pm 23.6 26.5 19.9 80 2.4 S 4 4 2 2 1011.1 1011.0 0.0
29/11:00pm 24.1 27.5 20.2 79 2.5 NE 2 6 1 3 1011.3 1011.2 0.0
29/10:30pm 24.4 27.9 20.3 78 2.7 NE 2 4 1 2 1011.3 1011.2 0.0
29/10:00pm 24.5 27.7 20.4 78 2.7 NNE 4 7 2 4 1011.1 1011.0 0.0
29/09:30pm 25.0 28.2 20.5 76 2.9 N 4 6 2 3 1010.9 1010.8 0.0
29/09:00pm 25.2 28.5 20.7 76 3.0 N 4 6 2 3 1011.1 1011.0 0.0
29/08:30pm 25.4 28.5 20.2 73 3.4 N 4 6 2 3 1010.8 1010.7 0.0
29/08:00pm 25.6 28.7 20.2 72 3.5 NNE 4 7 2 4 1010.6 1010.5 0.0
29/07:30pm 26.5 29.6 20.3 68 4.1 N 4 7 2 4 1010.4 1010.3 0.0
29/07:00pm 27.3 30.2 20.6 67 4.4 N 6 11 3 6 1010.1 1010.0 0.0
29/06:30pm 28.1 30.8 20.6 63 5.0 NNW 7 15 4 8 1010.0 1009.9 0.0
29/06:00pm 28.8 30.8 20.8 62 5.3 NNW 11 17 6 9 1009.8 1009.7 0.0
29/05:30pm 29.8 32.0 21.2 60 5.8 NNW 11 20 6 11 1009.7 1009.6 0.0
29/05:00pm 30.7 32.5 21.2 57 6.4 NW 13 20 7 11 1009.5 1009.4 0.0
29/04:30pm 31.1 33.1 21.6 57 6.4 NW 13 22 7 12 1009.6 1009.5 0.0
29/04:00pm 32.0 33.6 21.5 53 7.1 NW 15 24 8 13 1009.7 1009.6 0.0
29/03:30pm 32.5 34.4 21.4 52 7.5 NNW 13 24 7 13 1009.7 1009.6 0.0
29/03:00pm 32.2 33.3 22.0 55 6.9 NW 19 26 10 14 1009.7 1009.6 0.0
29/02:30pm 33.5 35.2 22.3 52 7.7 NW 17 30 9 16 1009.8 1009.7 0.0
29/02:00pm 34.6 37.4 22.3 48 8.4 NW 11 24 6 13 1009.8 1009.7 0.0
29/01:30pm 35.4 37.8 19.7 39 10.5 WNW 6 9 3 5 1010.2 1010.1 0.0
29/01:00pm 34.1 35.8 19.4 42 9.7 NW 9 15 5 8 1010.9 1010.8 0.0
29/12:30pm 33.4 35.0 19.1 42 9.4 NW 9 19 5 10 1011.6 1011.5 0.0
29/12:00pm 34.2 35.8 19.1 41 9.9 NE 9 19 5 10 1012.1 1012.0 0.0
29/11:30am 33.4 35.3 19.8 44 9.0 ENE 9 17 5 9 1012.5 1012.4 0.0
29/11:00am 33.1 33.8 18.8 42 9.3 E 13 22 7 12 1012.9 1012.8 0.0
29/10:30am 31.9 34.4 21.1 52 7.3 ESE 9 17 5 9 1013.0 1012.9 0.0
29/10:00am 30.0 33.2 20.5 56 6.3 NNE 4 9 2 5 1012.9 1012.8 0.0
29/09:30am 30.0 32.8 20.5 56 6.3 N 6 9 3 5 1012.9 1012.8 0.0
29/09:00am 30.1 33.5 20.9 57 6.1 ENE 4 13 2 7 1013.0 1012.9 0.0
29/08:30am 29.1 31.7 20.5 59 5.7 ENE 7 13 4 7 1012.9 1012.8 0.0
29/08:00am 27.7 31.3 22.0 71 3.8 E 6 9 3 5 1012.7 1012.6 0.0
29/07:30am 26.2 30.2 22.7 81 2.4 E 6 7 3 4 1012.3 1012.2 0.0
29/07:00am 22.7 26.5 21.7 94 0.7 E 4 6 2 3 1012.0 1011.9 0.0
29/06:30am 21.9 24.8 20.7 93 0.8 ENE 6 7 3 4 1011.8 1011.7 0.0
29/06:00am 21.8 25.0 20.6 93 0.8 NE 4 6 2 3 1011.7 1011.6 0.0
29/05:30am 21.6 24.6 20.1 91 1.0 NE 4 6 2 3 1011.3 1011.2 0.0
29/05:00am 21.9 24.9 20.0 89 1.2 NE 4 4 2 2 1011.1 1011.0 0.0
29/04:30am 22.1 25.3 20.4 90 1.1 NE 4 4 2 2 1010.9 1010.8 0.0
29/04:00am 22.3 25.5 20.4 89 1.2 NE 4 4 2 2 1010.9 1010.8 0.0
29/03:30am 22.3 25.5 20.6 90 1.1 NE 4 6 2 3 1010.8 1010.7 0.0
29/03:00am 22.5 25.7 20.4 88 1.4 ENE 4 4 2 2 1010.9 1010.8 0.0
29/02:30am 22.6 25.9 20.7 89 1.2 ENE 4 4 2 2 1010.9 1010.8 0.0
29/02:00am 22.7 25.9 20.4 87 1.5 ENE 4 6 2 3 1011.2 1011.1 0.0
29/01:30am 22.9 26.1 20.4 86 1.6 NE 4 4 2 2 1011.2 1011.1 0.0
29/01:00am 23.0 26.3 20.7 87 1.5 NE 4 6 2 3 1011.3 1011.2 0.0
29/12:30am 23.4 27.6 20.9 86 1.6 CALM 0 0 0 0 1011.4 1011.3 0.0
29/12:00am 23.5 27.2 20.8 85 1.8 E 2 4 1 2 1011.4 1011.3 0.0
 
Date/Time
CST
Temp
°C
App
Temp
°C
Dew
Point
Rel
Hum
%
Delta-T
°C
Wind Press
QNH
hPa
Press
MSL
hPa
Rain
since 9 am
mm
Dir
 
Spd
km/h
Gust
km/h
Spd
kts
Gust
kts
28/11:30pm 23.9 27.5 20.6 82 2.2 SE 2 4 1 2 1011.2 1011.1 0.0
28/11:00pm 24.5 28.3 21.0 81 2.3 N 2 4 1 2 1010.9 1010.8 0.0
28/10:30pm 24.8 28.7 21.1 80 2.4 NNE 2 6 1 3 1010.8 1010.7 0.0
28/10:00pm 25.1 28.7 21.2 79 2.6 N 4 7 2 4 1010.6 1010.5 0.0
28/09:30pm 25.0 28.6 21.3 80 2.4 NNE 4 6 2 3 1010.5 1010.4 0.0
28/09:00pm 25.2 28.7 21.1 78 2.7 N 4 6 2 3 1010.4 1010.3 0.0
28/08:30pm 25.4 28.9 21.1 77 2.8 N 4 6 2 3 1010.0 1009.9 0.0
28/08:00pm 25.9 29.3 20.9 74 3.3 N 4 6 2 3 1010.0 1009.9 0.0
28/07:30pm 26.7 30.0 20.8 70 3.9 N 4 7 2 4 1009.9 1009.8 0.0
28/07:00pm 27.5 30.5 20.8 67 4.4 N 6 15 3 8 1009.6 1009.5 0.0
28/06:30pm 28.7 31.6 20.7 62 5.3 N 6 13 3 7 1009.3 1009.2 0.0
28/06:00pm 30.0 33.0 20.8 57 6.1 NNE 6 9 3 5 1008.9 1008.8 0.0
28/05:30pm 30.8 34.0 22.4 61 5.7 NW 9 19 5 10 1008.8 1008.7 0.0
28/05:00pm 31.9 35.0 22.9 59 6.2 NW 11 20 6 11 1008.8 1008.7 0.0
28/04:30pm 31.6 33.3 21.7 55 6.7 NW 15 22 8 12 1008.5 1008.4 0.0
28/04:00pm 32.1 34.1 21.6 53 7.1 NW 13 20 7 11 1008.7 1008.6 0.0
28/03:30pm 33.3 35.1 21.8 51 7.8 NW 15 26 8 14 1008.8 1008.7 0.0
28/03:00pm 33.3 35.5 21.8 51 7.8 NNW 13 24 7 13 1008.9 1008.8 0.0

Other Formats:

Comma delimited format used in spreadsheet applications
http://www.bom.gov.au/fwo/IDD60801/IDD60801.94119.axf

JavaScript Object Notation format (JSON) in row-major order
http://www.bom.gov.au/fwo/IDD60801/IDD60801.94119.json